N308AP LFSD-EGLC

Flight info

Callsign N308AP
Flight time 1h 53m
Altitude 10000
Route DJL DCT KOPOR DCT VESAN DCT SOVAT
Aircraft AEST/L-SDFGRY/S

Departure

Time 2026-05-06 00:48
Airport Dijon Longvic airport (LFSD)

Arrival

Time 2026-05-06 02:41
Airport London City Airport (EGLC)
Time Latitude Longitude Altitude Speed Heading
2026-05-06 00:28 47.27177 5.08040 716 ft 0 kts 238°
2026-05-06 00:40 47.27185 5.08015 716 ft 7 kts 333°
2026-05-06 00:40 47.27247 5.07997 717 ft 11 kts 37°
2026-05-06 00:40 47.27304 5.08048 717 ft 12 kts 319°
2026-05-06 00:40 47.27386 5.07939 718 ft 19 kts 319°
2026-05-06 00:41 47.27501 5.07788 718 ft 24 kts 319°
2026-05-06 00:41 47.27626 5.07624 721 ft 25 kts 319°
2026-05-06 00:41 47.27724 5.07515 721 ft 20 kts 344°
2026-05-06 00:41 47.27833 5.07614 720 ft 22 kts 69°
2026-05-06 00:42 47.27888 5.07830 721 ft 23 kts 70°
2026-05-06 00:42 47.27948 5.08063 721 ft 26 kts 69°
2026-05-06 00:42 47.28014 5.08322 722 ft 28 kts 70°
2026-05-06 00:42 47.28073 5.08562 723 ft 25 kts 71°
2026-05-06 00:43 47.28037 5.08743 721 ft 19 kts 128°
2026-05-06 00:43 47.27943 5.08893 721 ft 20 kts 133°
2026-05-06 00:43 47.27846 5.09046 721 ft 21 kts 133°
2026-05-06 00:43 47.27747 5.09204 721 ft 21 kts 133°
2026-05-06 00:44 47.27677 5.09314 721 ft 14 kts 131°
2026-05-06 00:44 47.27621 5.09366 720 ft 0 kts 175°
2026-05-06 00:47 47.27510 5.09380 719 ft 55 kts 175°
2026-05-06 00:48 47.26942 5.09456 788 ft 96 kts 174°
2026-05-06 00:48 47.26184 5.09447 1043 ft 122 kts 201°
2026-05-06 00:48 47.25623 5.08512 1464 ft 128 kts 250°
2026-05-06 00:48 47.25637 5.07186 1894 ft 131 kts 282°
2026-05-06 00:49 47.26092 5.06022 2203 ft 141 kts 301°
2026-05-06 00:49 47.26780 5.04878 2429 ft 151 kts 310°
2026-05-06 00:49 47.27619 5.04010 2871 ft 148 kts 329°
2026-05-06 00:49 47.28680 5.03613 3060 ft 165 kts 351°
2026-05-06 00:50 47.29813 5.03523 3496 ft 157 kts 352°
2026-05-06 00:50 47.30863 5.03019 3762 ft 164 kts 326°
2026-05-06 00:50 47.31765 5.01972 4022 ft 166 kts 314°
2026-05-06 00:50 47.32621 5.00882 4375 ft 163 kts 313°
2026-05-06 00:51 47.33456 4.99766 4752 ft 161 kts 311°
2026-05-06 00:51 47.34263 4.98627 5089 ft 159 kts 309°
2026-05-06 00:51 47.35038 4.97495 5432 ft 154 kts 308°
2026-05-06 00:51 47.35778 4.96373 5770 ft 152 kts 306°
2026-05-06 00:52 47.36522 4.95219 6078 ft 157 kts 306°
2026-05-06 00:52 47.37274 4.94046 6404 ft 157 kts 307°
2026-05-06 00:52 47.38033 4.92886 6714 ft 157 kts 307°
2026-05-06 00:52 47.38785 4.91720 7008 ft 157 kts 307°
2026-05-06 00:53 47.39545 4.90543 7302 ft 159 kts 307°
2026-05-06 00:53 47.40307 4.89365 7605 ft 159 kts 307°
2026-05-06 00:53 47.41071 4.88182 7896 ft 159 kts 307°
2026-05-06 00:53 47.41831 4.86999 8175 ft 159 kts 308°
2026-05-06 00:54 47.42599 4.85815 8449 ft 160 kts 307°
2026-05-06 00:54 47.43369 4.84628 8695 ft 160 kts 307°
2026-05-06 00:54 47.44143 4.83433 8937 ft 161 kts 307°
2026-05-06 00:54 47.44918 4.82232 9161 ft 162 kts 307°
2026-05-06 00:55 47.45697 4.81025 9380 ft 163 kts 307°
2026-05-06 00:55 47.46481 4.79810 9602 ft 163 kts 307°
2026-05-06 00:55 47.47269 4.78589 9761 ft 166 kts 307°
2026-05-06 00:55 47.48068 4.77346 9844 ft 173 kts 307°
2026-05-06 00:56 47.48916 4.76027 9866 ft 182 kts 307°
2026-05-06 00:56 47.49804 4.74646 9859 ft 190 kts 308°
2026-05-06 00:56 47.50730 4.73199 9852 ft 198 kts 308°
2026-05-06 00:56 47.51694 4.71704 9845 ft 204 kts 308°
2026-05-06 00:57 47.52680 4.70179 9860 ft 206 kts 309°
2026-05-06 00:57 47.53679 4.68630 9854 ft 209 kts 308°
2026-05-06 00:57 47.54687 4.67064 9832 ft 211 kts 309°
2026-05-06 00:57 47.55699 4.65491 9843 ft 211 kts 308°
2026-05-06 00:58 47.56712 4.63913 9845 ft 212 kts 308°
2026-05-06 00:58 47.57729 4.62328 9845 ft 213 kts 308°
2026-05-06 00:58 47.58748 4.60736 9838 ft 213 kts 308°
2026-05-06 00:58 47.59768 4.59140 9846 ft 214 kts 309°
2026-05-06 00:59 47.60796 4.57539 9845 ft 215 kts 309°
2026-05-06 00:59 47.61837 4.55933 9845 ft 217 kts 310°
2026-05-06 00:59 47.62914 4.54356 9825 ft 217 kts 316°
2026-05-06 00:59 47.64129 4.53040 9844 ft 216 kts 320°
2026-05-06 01:00 47.65346 4.51743 9830 ft 215 kts 320°
2026-05-06 01:00 47.66555 4.50446 9828 ft 214 kts 320°
2026-05-06 01:00 47.67760 4.49151 9830 ft 213 kts 319°
2026-05-06 01:00 47.68961 4.47862 9833 ft 212 kts 320°
2026-05-06 01:01 47.70155 4.46582 9833 ft 212 kts 320°
2026-05-06 01:01 47.71332 4.45315 9831 ft 211 kts 319°
2026-05-06 01:01 47.72524 4.44022 9837 ft 213 kts 320°
2026-05-06 01:01 47.73722 4.42722 9837 ft 214 kts 320°
2026-05-06 01:02 47.74926 4.41426 9836 ft 214 kts 320°
2026-05-06 01:02 47.76129 4.40134 9835 ft 213 kts 320°
2026-05-06 01:02 47.77330 4.38841 9837 ft 213 kts 320°
2026-05-06 01:02 47.78530 4.37546 9828 ft 213 kts 320°
2026-05-06 01:03 47.79726 4.36253 9826 ft 212 kts 320°
2026-05-06 01:03 47.80918 4.34965 9825 ft 211 kts 320°
2026-05-06 01:03 47.82102 4.33683 9827 ft 210 kts 320°
2026-05-06 01:03 47.83277 4.32411 9828 ft 209 kts 320°
2026-05-06 01:04 47.84446 4.31143 9827 ft 208 kts 320°
2026-05-06 01:04 47.85611 4.29877 9828 ft 207 kts 319°
2026-05-06 01:04 47.86772 4.28614 9829 ft 207 kts 319°
2026-05-06 01:04 47.87934 4.27351 9831 ft 207 kts 319°
2026-05-06 01:05 47.89096 4.26088 9828 ft 207 kts 319°
2026-05-06 01:05 47.90259 4.24824 9828 ft 207 kts 319°
2026-05-06 01:05 47.91418 4.23563 9835 ft 206 kts 319°
2026-05-06 01:05 47.92571 4.22298 9835 ft 205 kts 319°
2026-05-06 01:06 47.93714 4.21027 9829 ft 205 kts 320°
2026-05-06 01:06 47.94855 4.19734 9825 ft 205 kts 322°
2026-05-06 01:06 47.96003 4.18481 9827 ft 204 kts 323°
2026-05-06 01:06 47.97133 4.17264 9822 ft 202 kts 323°
2026-05-06 01:07 47.98270 4.16038 9828 ft 201 kts 322°
2026-05-06 01:07 47.99398 4.14817 9828 ft 200 kts 322°
2026-05-06 01:07 48.00517 4.13601 9833 ft 199 kts 322°
2026-05-06 01:07 48.01641 4.12378 9837 ft 200 kts 322°
2026-05-06 01:08 48.02765 4.11158 9833 ft 200 kts 323°
2026-05-06 01:08 48.03888 4.09940 9835 ft 200 kts 322°
2026-05-06 01:08 48.05011 4.08719 9837 ft 200 kts 322°
2026-05-06 01:08 48.06141 4.07494 9829 ft 200 kts 322°
2026-05-06 01:09 48.07256 4.06268 9838 ft 199 kts 322°
2026-05-06 01:09 48.08364 4.05045 9829 ft 196 kts 322°
2026-05-06 01:09 48.09448 4.03852 9835 ft 191 kts 322°
2026-05-06 01:09 48.10507 4.02686 9842 ft 187 kts 322°
2026-05-06 01:10 48.11548 4.01539 9843 ft 184 kts 322°
2026-05-06 01:10 48.12570 4.00411 9844 ft 181 kts 322°
2026-05-06 01:10 48.13575 3.99302 9845 ft 178 kts 322°
2026-05-06 01:10 48.14565 3.98208 9841 ft 175 kts 322°
2026-05-06 01:11 48.15539 3.97133 9843 ft 173 kts 321°
2026-05-06 01:11 48.16494 3.96056 9846 ft 171 kts 322°
2026-05-06 01:11 48.17437 3.95002 9848 ft 168 kts 323°
2026-05-06 01:11 48.18367 3.93975 9851 ft 164 kts 323°
2026-05-06 01:12 48.19281 3.92972 9844 ft 161 kts 323°
2026-05-06 01:12 48.19877 3.92317 9845 ft 159 kts 323°
2026-05-06 01:12 48.21043 3.91032 9844 ft 153 kts 323°
2026-05-06 01:12 48.21615 3.90400 9776 ft 155 kts 323°
2026-05-06 01:13 48.22493 3.89430 9683 ft 157 kts 323°
2026-05-06 01:13 48.23377 3.88453 9600 ft 159 kts 323°
2026-05-06 01:13 48.24289 3.87445 9385 ft 169 kts 323°
2026-05-06 01:13 48.25260 3.86375 9168 ft 177 kts 323°
2026-05-06 01:14 48.27317 3.84111 8801 ft 188 kts 323°
2026-05-06 01:14 48.28380 3.82938 8649 ft 191 kts 323°
2026-05-06 01:14 48.29456 3.81746 8496 ft 193 kts 323°
2026-05-06 01:15 48.30527 3.80559 8353 ft 195 kts 323°
2026-05-06 01:15 48.31621 3.79347 8204 ft 196 kts 323°
2026-05-06 01:15 48.32735 3.78112 8043 ft 197 kts 323°
2026-05-06 01:15 48.33824 3.76902 7897 ft 197 kts 323°
2026-05-06 01:16 48.34913 3.75690 7861 ft 192 kts 323°
2026-05-06 01:16 48.35974 3.74506 7840 ft 188 kts 323°
2026-05-06 01:16 48.37014 3.73345 7821 ft 185 kts 323°
2026-05-06 01:16 48.38038 3.72196 7821 ft 182 kts 323°
2026-05-06 01:17 48.39036 3.71045 7835 ft 180 kts 324°
2026-05-06 01:17 48.40038 3.69920 7831 ft 180 kts 325°
2026-05-06 01:17 48.41044 3.68805 7830 ft 179 kts 325°
2026-05-06 01:17 48.42051 3.67691 7828 ft 180 kts 325°
2026-05-06 01:18 48.43058 3.66575 7835 ft 180 kts 325°
2026-05-06 01:18 48.44068 3.65455 7833 ft 181 kts 325°
2026-05-06 01:18 48.45081 3.64331 7838 ft 181 kts 325°
2026-05-06 01:18 48.46096 3.63205 7836 ft 182 kts 324°
2026-05-06 01:19 48.47116 3.62068 7835 ft 183 kts 324°
2026-05-06 01:19 48.48144 3.60918 7836 ft 185 kts 324°
2026-05-06 01:19 48.49192 3.59753 7831 ft 190 kts 324°
2026-05-06 01:19 48.50253 3.58558 7833 ft 192 kts 324°
2026-05-06 01:20 48.51334 3.57352 7833 ft 195 kts 324°
2026-05-06 01:20 48.52414 3.56131 7824 ft 193 kts 324°
2026-05-06 01:20 48.53478 3.54922 7828 ft 191 kts 324°
2026-05-06 01:20 48.54541 3.53728 7833 ft 190 kts 324°
2026-05-06 01:21 48.55589 3.52554 7834 ft 190 kts 324°
2026-05-06 01:21 48.56648 3.51367 7834 ft 190 kts 324°
2026-05-06 01:21 48.57710 3.50180 7835 ft 190 kts 324°
2026-05-06 01:21 48.58767 3.48990 7839 ft 190 kts 324°
2026-05-06 01:22 48.59829 3.47790 7839 ft 191 kts 324°
2026-05-06 01:22 48.60889 3.46580 7836 ft 189 kts 325°
2026-05-06 01:22 48.61929 3.45376 7835 ft 189 kts 326°
2026-05-06 01:22 48.62977 3.44187 7837 ft 188 kts 326°
2026-05-06 01:23 48.64031 3.43004 7837 ft 190 kts 326°
2026-05-06 01:23 48.65094 3.41808 7835 ft 191 kts 327°
2026-05-06 01:23 48.66164 3.40610 7840 ft 192 kts 327°
2026-05-06 01:23 48.67249 3.39405 7844 ft 196 kts 326°
2026-05-06 01:24 48.68364 3.38180 7835 ft 203 kts 326°
2026-05-06 01:24 48.69489 3.36918 7829 ft 203 kts 325°
2026-05-06 01:24 48.70605 3.35627 7834 ft 201 kts 326°
2026-05-06 01:24 48.71712 3.34360 7850 ft 199 kts 326°
2026-05-06 01:25 48.72832 3.33071 7841 ft 203 kts 325°
2026-05-06 01:25 48.73954 3.31777 7855 ft 206 kts 326°
2026-05-06 01:25 48.75134 3.30428 7825 ft 218 kts 327°
2026-05-06 01:25 48.76356 3.29071 7842 ft 218 kts 327°
2026-05-06 01:26 48.77583 3.27716 7823 ft 217 kts 327°
2026-05-06 01:26 48.78783 3.26373 7830 ft 212 kts 326°
2026-05-06 01:26 48.79948 3.25045 7849 ft 208 kts 326°
2026-05-06 01:26 48.81099 3.23728 7830 ft 207 kts 326°
2026-05-06 01:27 48.82245 3.22409 7835 ft 207 kts 326°
2026-05-06 01:27 48.83390 3.21092 7837 ft 207 kts 326°
2026-05-06 01:27 48.84539 3.19781 7839 ft 207 kts 326°
2026-05-06 01:27 48.85692 3.18462 7838 ft 208 kts 326°
2026-05-06 01:28 48.86845 3.17144 7838 ft 207 kts 326°
2026-05-06 01:28 48.88001 3.15831 7838 ft 208 kts 326°
2026-05-06 01:28 48.89158 3.14515 7844 ft 208 kts 326°
2026-05-06 01:28 48.90321 3.13185 7842 ft 209 kts 326°
2026-05-06 01:29 48.91484 3.11857 7840 ft 209 kts 326°
2026-05-06 01:29 48.92635 3.10541 7838 ft 210 kts 326°
2026-05-06 01:29 48.93803 3.09200 7838 ft 211 kts 326°
2026-05-06 01:29 48.94976 3.07857 7839 ft 211 kts 326°
2026-05-06 01:30 48.96147 3.06510 7839 ft 210 kts 326°
2026-05-06 01:30 48.97314 3.05155 7828 ft 212 kts 326°
2026-05-06 01:30 48.98485 3.03811 7845 ft 211 kts 326°
2026-05-06 01:30 48.99661 3.02467 7839 ft 212 kts 326°
2026-05-06 01:31 49.00836 3.01114 7839 ft 212 kts 326°
2026-05-06 01:31 49.02017 2.99759 7838 ft 212 kts 326°
2026-05-06 01:31 49.03198 2.98399 7842 ft 214 kts 326°
2026-05-06 01:31 49.04384 2.97034 7835 ft 215 kts 326°
2026-05-06 01:32 49.05580 2.95648 7838 ft 216 kts 326°
2026-05-06 01:32 49.06779 2.94264 7845 ft 217 kts 326°
2026-05-06 01:32 49.07985 2.92871 7835 ft 218 kts 326°
2026-05-06 01:32 49.09192 2.91469 7848 ft 219 kts 326°
2026-05-06 01:33 49.10411 2.90076 7845 ft 219 kts 326°
2026-05-06 01:33 49.11631 2.88668 7842 ft 220 kts 326°
2026-05-06 01:33 49.12850 2.87260 7844 ft 220 kts 326°
2026-05-06 01:33 49.14073 2.85858 7848 ft 220 kts 326°
2026-05-06 01:34 49.15293 2.84433 7849 ft 222 kts 326°
2026-05-06 01:34 49.16524 2.82994 7846 ft 223 kts 326°
2026-05-06 01:34 49.17759 2.81569 7851 ft 223 kts 326°
2026-05-06 01:34 49.18996 2.80121 7849 ft 224 kts 326°
2026-05-06 01:35 49.20234 2.78686 7853 ft 223 kts 326°
2026-05-06 01:35 49.21473 2.77253 7851 ft 223 kts 326°
2026-05-06 01:35 49.22709 2.75820 7851 ft 224 kts 326°
2026-05-06 01:35 49.23950 2.74379 7855 ft 224 kts 326°
2026-05-06 01:36 49.25179 2.72952 7852 ft 225 kts 326°
2026-05-06 01:36 49.26424 2.71508 7852 ft 225 kts 326°
2026-05-06 01:36 49.27661 2.70043 7845 ft 225 kts 326°
2026-05-06 01:36 49.28901 2.68584 7852 ft 225 kts 326°
2026-05-06 01:37 49.30148 2.67126 7852 ft 226 kts 326°
2026-05-06 01:37 49.31390 2.65668 7856 ft 224 kts 327°
2026-05-06 01:37 49.32627 2.64220 7863 ft 223 kts 327°
2026-05-06 01:37 49.33865 2.62777 7865 ft 223 kts 327°
2026-05-06 01:38 49.35103 2.61336 7864 ft 223 kts 327°
2026-05-06 01:38 49.36341 2.59892 7864 ft 224 kts 327°
2026-05-06 01:38 49.37577 2.58446 7864 ft 224 kts 327°
2026-05-06 01:38 49.38814 2.56997 7865 ft 224 kts 327°
2026-05-06 01:39 49.40050 2.55548 7867 ft 223 kts 327°
2026-05-06 01:39 49.41284 2.54100 7871 ft 223 kts 327°
2026-05-06 01:39 49.42518 2.52652 7874 ft 223 kts 327°
2026-05-06 01:39 49.43749 2.51204 7874 ft 223 kts 327°
2026-05-06 01:40 49.44984 2.49750 7870 ft 223 kts 327°
2026-05-06 01:40 49.46215 2.48298 7869 ft 223 kts 327°
2026-05-06 01:40 49.47449 2.46846 7872 ft 223 kts 327°
2026-05-06 01:40 49.48666 2.45413 7874 ft 223 kts 326°
2026-05-06 01:41 49.49895 2.43962 7872 ft 223 kts 326°
2026-05-06 01:41 49.51146 2.42591 7873 ft 220 kts 334°
2026-05-06 01:41 49.52540 2.41653 7872 ft 218 kts 346°
2026-05-06 01:41 49.53978 2.40959 7874 ft 216 kts 348°
2026-05-06 01:42 49.55421 2.40299 7872 ft 216 kts 348°
2026-05-06 01:42 49.56859 2.39655 7879 ft 215 kts 348°
2026-05-06 01:42 49.58302 2.39015 7878 ft 215 kts 348°
2026-05-06 01:42 49.59743 2.38372 7874 ft 216 kts 348°
2026-05-06 01:43 49.61183 2.37718 7879 ft 216 kts 348°
2026-05-06 01:43 49.62627 2.37069 7876 ft 216 kts 348°
2026-05-06 01:43 49.64071 2.36419 7875 ft 216 kts 348°
2026-05-06 01:43 49.65515 2.35772 7879 ft 216 kts 348°
2026-05-06 01:44 49.66952 2.35116 7879 ft 215 kts 348°
2026-05-06 01:44 49.68387 2.34462 7881 ft 215 kts 348°
2026-05-06 01:44 49.69821 2.33808 7885 ft 215 kts 348°
2026-05-06 01:44 49.71259 2.33154 7878 ft 215 kts 347°
2026-05-06 01:45 49.72695 2.32506 7875 ft 215 kts 347°
2026-05-06 01:45 49.74132 2.31854 7883 ft 215 kts 347°
2026-05-06 01:45 49.75565 2.31193 7885 ft 215 kts 347°
2026-05-06 01:45 49.77000 2.30529 7885 ft 215 kts 347°
2026-05-06 01:46 49.78414 2.29888 7888 ft 215 kts 347°
2026-05-06 01:46 49.79850 2.29232 7886 ft 215 kts 347°
2026-05-06 01:46 49.81291 2.28573 7887 ft 216 kts 347°
2026-05-06 01:46 49.82729 2.27908 7884 ft 215 kts 347°
2026-05-06 01:47 49.84165 2.27246 7884 ft 215 kts 348°
2026-05-06 01:47 49.85599 2.26582 7881 ft 215 kts 348°
2026-05-06 01:47 49.87031 2.25930 7889 ft 214 kts 347°
2026-05-06 01:47 49.88462 2.25286 7884 ft 214 kts 347°
2026-05-06 01:48 49.89892 2.24630 7889 ft 214 kts 347°
2026-05-06 01:48 49.91320 2.23972 7888 ft 214 kts 347°
2026-05-06 01:48 49.92746 2.23305 7897 ft 213 kts 347°
2026-05-06 01:48 49.94171 2.22646 7894 ft 214 kts 348°
2026-05-06 01:49 49.95596 2.22000 7889 ft 214 kts 348°
2026-05-06 01:49 49.97028 2.21373 7891 ft 214 kts 347°
2026-05-06 01:49 49.98448 2.20700 7894 ft 213 kts 347°
2026-05-06 01:49 49.99865 2.20034 7900 ft 212 kts 347°
2026-05-06 01:50 50.01284 2.19365 7897 ft 213 kts 347°
2026-05-06 01:50 50.02708 2.18711 7900 ft 212 kts 347°
2026-05-06 01:50 50.04129 2.18062 7902 ft 213 kts 347°
2026-05-06 01:50 50.05557 2.17419 7899 ft 213 kts 347°
2026-05-06 01:51 50.06786 2.16846 7897 ft 213 kts 347°
2026-05-06 01:51 50.08198 2.16171 7899 ft 212 kts 347°
2026-05-06 01:51 50.09611 2.15507 7901 ft 213 kts 347°
2026-05-06 01:51 50.11031 2.14857 7896 ft 213 kts 347°
2026-05-06 01:52 50.12457 2.14209 7894 ft 213 kts 347°
2026-05-06 01:52 50.13874 2.13547 7904 ft 212 kts 347°
2026-05-06 01:52 50.15291 2.12878 7900 ft 213 kts 347°
2026-05-06 01:52 50.16705 2.12207 7902 ft 212 kts 347°
2026-05-06 01:53 50.18108 2.11574 7894 ft 213 kts 347°
2026-05-06 01:53 50.19527 2.10921 7904 ft 214 kts 347°
2026-05-06 01:53 50.20958 2.10266 7903 ft 214 kts 346°
2026-05-06 01:53 50.22376 2.09589 7909 ft 213 kts 346°
2026-05-06 01:54 50.23790 2.08919 7907 ft 213 kts 347°
2026-05-06 01:54 50.25209 2.08254 7905 ft 213 kts 347°
2026-05-06 01:54 50.26632 2.07593 7908 ft 213 kts 347°
2026-05-06 01:54 50.28057 2.06939 7907 ft 214 kts 346°
2026-05-06 01:55 50.29485 2.06273 7901 ft 214 kts 346°
2026-05-06 01:55 50.30913 2.05604 7907 ft 214 kts 347°
2026-05-06 01:55 50.32330 2.04914 7894 ft 213 kts 347°
2026-05-06 01:55 50.33755 2.04263 7904 ft 214 kts 347°
2026-05-06 01:56 50.35181 2.03601 7905 ft 214 kts 347°
2026-05-06 01:56 50.36601 2.02906 7911 ft 214 kts 340°
2026-05-06 01:56 50.37867 2.01711 7915 ft 215 kts 325°
2026-05-06 01:56 50.39025 2.00203 7914 ft 217 kts 323°
2026-05-06 01:57 50.40170 1.98654 7905 ft 218 kts 323°
2026-05-06 01:57 50.41304 1.97093 7907 ft 217 kts 323°
2026-05-06 01:57 50.42442 1.95539 7917 ft 217 kts 323°
2026-05-06 01:57 50.43595 1.94007 7902 ft 217 kts 322°
2026-05-06 01:58 50.44731 1.92445 7912 ft 217 kts 322°
2026-05-06 01:58 50.45873 1.90886 7908 ft 217 kts 322°
2026-05-06 01:58 50.47007 1.89356 7909 ft 217 kts 321°
2026-05-06 01:58 50.48141 1.87791 7912 ft 218 kts 321°
2026-05-06 01:59 50.49270 1.86202 7925 ft 218 kts 322°
2026-05-06 01:59 50.50428 1.84610 7891 ft 226 kts 322°
2026-05-06 01:59 50.51616 1.82997 7911 ft 226 kts 322°
2026-05-06 01:59 50.52805 1.81346 7892 ft 229 kts 321°
2026-05-06 02:00 50.54003 1.79707 7902 ft 226 kts 322°
2026-05-06 02:00 50.55177 1.78082 7908 ft 223 kts 321°
2026-05-06 02:00 50.56340 1.76480 7910 ft 222 kts 321°
2026-05-06 02:00 50.57500 1.74883 7909 ft 221 kts 322°
2026-05-06 02:01 50.58667 1.73307 7911 ft 221 kts 322°
2026-05-06 02:01 50.59836 1.71737 7908 ft 220 kts 321°
2026-05-06 02:01 50.60972 1.70169 7907 ft 220 kts 321°
2026-05-06 02:01 50.62113 1.68572 7908 ft 219 kts 322°
2026-05-06 02:02 50.63263 1.66994 7921 ft 219 kts 322°
2026-05-06 02:02 50.64405 1.65426 7922 ft 217 kts 321°
2026-05-06 02:02 50.65539 1.63862 7924 ft 216 kts 321°
2026-05-06 02:02 50.66675 1.62307 7918 ft 216 kts 321°
2026-05-06 02:03 50.67812 1.60751 7919 ft 217 kts 321°
2026-05-06 02:03 50.68944 1.59173 7931 ft 217 kts 321°
2026-05-06 02:03 50.70080 1.57606 7930 ft 217 kts 321°
2026-05-06 02:03 50.71213 1.56030 7926 ft 217 kts 321°
2026-05-06 02:04 50.72349 1.54464 7927 ft 217 kts 321°
2026-05-06 02:04 50.73475 1.52890 7929 ft 216 kts 321°
2026-05-06 02:04 50.74605 1.51320 7928 ft 217 kts 321°
2026-05-06 02:04 50.75735 1.49750 7929 ft 216 kts 321°
2026-05-06 02:05 50.76859 1.48175 7935 ft 216 kts 321°
2026-05-06 02:05 50.77982 1.46598 7935 ft 216 kts 321°
2026-05-06 02:05 50.79116 1.45026 7933 ft 217 kts 321°
2026-05-06 02:05 50.80242 1.43443 7932 ft 217 kts 320°
2026-05-06 02:06 50.81360 1.41845 7935 ft 216 kts 320°
2026-05-06 02:06 50.82488 1.40260 7938 ft 217 kts 320°
2026-05-06 02:06 50.83611 1.38671 7938 ft 217 kts 319°
2026-05-06 02:06 50.84724 1.37073 7943 ft 216 kts 320°
2026-05-06 02:07 50.85838 1.35479 7942 ft 216 kts 320°
2026-05-06 02:07 50.86964 1.33902 7939 ft 217 kts 323°
2026-05-06 02:07 50.88302 1.32907 7946 ft 214 kts 350°
2026-05-06 02:07 50.89780 1.32818 7948 ft 213 kts
2026-05-06 02:08 50.91260 1.32890 7943 ft 213 kts
2026-05-06 02:08 50.92742 1.32981 7945 ft 212 kts
2026-05-06 02:08 50.94220 1.33075 7950 ft 211 kts
2026-05-06 02:08 50.95683 1.33158 7946 ft 211 kts
2026-05-06 02:09 50.97156 1.33022 7952 ft 212 kts 354°
2026-05-06 02:09 50.98621 1.32701 7954 ft 213 kts 353°
2026-05-06 02:09 51.00089 1.32362 7948 ft 213 kts 353°
2026-05-06 02:09 51.01532 1.32026 7956 ft 211 kts 352°
2026-05-06 02:10 51.02987 1.31681 7950 ft 213 kts 352°
2026-05-06 02:10 51.04451 1.31338 7948 ft 213 kts 352°
2026-05-06 02:10 51.05919 1.30995 7963 ft 213 kts 352°
2026-05-06 02:10 51.07382 1.30645 7953 ft 213 kts 352°
2026-05-06 02:11 51.08841 1.30299 7959 ft 212 kts 352°
2026-05-06 02:11 51.10301 1.29955 7959 ft 212 kts 352°
2026-05-06 02:11 51.11758 1.29613 7959 ft 213 kts 352°
2026-05-06 02:11 51.13231 1.29270 7958 ft 213 kts 352°
2026-05-06 02:12 51.14697 1.28918 7954 ft 214 kts 352°
2026-05-06 02:12 51.16154 1.28569 7958 ft 212 kts 352°
2026-05-06 02:12 51.17623 1.28252 7955 ft 213 kts 355°
2026-05-06 02:12 51.19098 1.28040 7957 ft 213 kts 356°
2026-05-06 02:13 51.20576 1.27853 7958 ft 212 kts 356°
2026-05-06 02:13 51.22051 1.27663 7956 ft 212 kts 356°
2026-05-06 02:13 51.23498 1.27464 7957 ft 212 kts 356°
2026-05-06 02:13 51.24972 1.27266 7956 ft 212 kts 355°
2026-05-06 02:14 51.26452 1.27062 7955 ft 214 kts 355°
2026-05-06 02:14 51.27929 1.26844 7952 ft 213 kts 355°
2026-05-06 02:14 51.29403 1.26632 7954 ft 213 kts 355°
2026-05-06 02:14 51.30875 1.26422 7960 ft 213 kts 355°
2026-05-06 02:15 51.32349 1.26213 7959 ft 213 kts 355°
2026-05-06 02:15 51.33835 1.26035 7957 ft 214 kts 359°
2026-05-06 02:15 51.35301 1.26331 7967 ft 212 kts 19°
2026-05-06 02:15 51.36599 1.27429 7964 ft 213 kts 33°
2026-05-06 02:16 51.37854 1.28699 7954 ft 214 kts 27°
2026-05-06 02:16 51.39227 1.29608 7959 ft 213 kts 18°
2026-05-06 02:16 51.40633 1.30368 7939 ft 213 kts 19°
2026-05-06 02:16 51.42063 1.30970 7958 ft 212 kts
2026-05-06 02:17 51.43541 1.31153 7962 ft 214 kts
2026-05-06 02:17 51.45021 1.31314 7961 ft 213 kts
2026-05-06 02:17 51.46497 1.31486 7962 ft 212 kts
2026-05-06 02:17 51.47974 1.31653 7966 ft 213 kts
2026-05-06 02:18 51.49453 1.31758 7965 ft 214 kts 358°
2026-05-06 02:18 51.50922 1.31432 7968 ft 213 kts 347°
2026-05-06 02:18 51.52357 1.30834 7969 ft 213 kts 346°
2026-05-06 02:18 51.53788 1.30225 7967 ft 213 kts 346°
2026-05-06 02:19 51.55190 1.29473 7972 ft 213 kts 331°
2026-05-06 02:19 51.56261 1.27866 7963 ft 214 kts 304°
2026-05-06 02:19 51.56661 1.26415 7958 ft 216 kts 285°
2026-05-06 02:19 51.56530 1.23241 7969 ft 218 kts 252°
2026-05-06 02:20 51.55256 1.18776 7952 ft 222 kts 244°
2026-05-06 02:20 51.54800 1.17310 7963 ft 222 kts 245°
2026-05-06 02:20 51.54123 1.15084 7967 ft 222 kts 245°
2026-05-06 02:21 51.53461 1.12847 7966 ft 222 kts 246°
2026-05-06 02:21 51.52805 1.10600 7965 ft 222 kts 246°
2026-05-06 02:21 51.52161 1.08354 7964 ft 221 kts 246°
2026-05-06 02:21 51.51513 1.06108 7945 ft 222 kts 246°
2026-05-06 02:22 51.50855 1.03828 7682 ft 224 kts 246°
2026-05-06 02:22 51.50210 1.01565 7367 ft 222 kts 246°
2026-05-06 02:22 51.49565 0.99321 7050 ft 221 kts 247°
2026-05-06 02:22 51.48925 0.97082 6748 ft 219 kts 247°
2026-05-06 02:23 51.48298 0.94857 6437 ft 219 kts 246°
2026-05-06 02:23 51.47730 0.92599 6158 ft 216 kts 256°
2026-05-06 02:23 51.47583 0.90244 5959 ft 210 kts 273°
2026-05-06 02:23 51.47641 0.87930 5751 ft 207 kts 274°
2026-05-06 02:24 51.47719 0.85638 5532 ft 206 kts 275°
2026-05-06 02:24 51.47799 0.83375 5459 ft 201 kts 275°
2026-05-06 02:24 51.47878 0.81176 5455 ft 193 kts 276°
2026-05-06 02:24 51.47960 0.79050 5417 ft 188 kts 277°
2026-05-06 02:25 51.48054 0.76912 5382 ft 197 kts 276°
2026-05-06 02:25 51.48146 0.74750 5444 ft 198 kts 275°
2026-05-06 02:25 51.48224 0.72501 5441 ft 204 kts 276°
2026-05-06 02:25 51.48306 0.70199 5450 ft 208 kts 276°
2026-05-06 02:26 51.48387 0.67858 5436 ft 212 kts 276°
2026-05-06 02:26 51.48476 0.65470 5389 ft 216 kts 277°
2026-05-06 02:26 51.48572 0.63079 5398 ft 213 kts 276°
2026-05-06 02:26 51.48664 0.60707 5403 ft 214 kts 276°
2026-05-06 02:27 51.48755 0.58346 5398 ft 211 kts 275°
2026-05-06 02:27 51.48837 0.56022 5288 ft 207 kts 275°
2026-05-06 02:27 51.48913 0.53694 5005 ft 209 kts 276°
2026-05-06 02:27 51.48995 0.51353 4711 ft 210 kts 276°
2026-05-06 02:28 51.49085 0.49005 4360 ft 212 kts 275°
2026-05-06 02:28 51.48959 0.46659 3963 ft 214 kts 254°
2026-05-06 02:28 51.48299 0.44539 3812 ft 207 kts 241°
2026-05-06 02:28 51.47579 0.42538 3652 ft 206 kts 241°
2026-05-06 02:29 51.46868 0.40588 3519 ft 201 kts 240°
2026-05-06 02:29 51.46164 0.38687 3465 ft 196 kts 241°
2026-05-06 02:29 51.45475 0.36829 3429 ft 191 kts 241°
2026-05-06 02:29 51.44817 0.35036 3428 ft 186 kts 241°
2026-05-06 02:30 51.44168 0.33273 3391 ft 184 kts 240°
2026-05-06 02:30 51.43519 0.31505 3340 ft 183 kts 243°
2026-05-06 02:30 51.43137 0.29598 3342 ft 178 kts 266°
2026-05-06 02:30 51.43138 0.27650 3354 ft 172 kts 275°
2026-05-06 02:31 51.43186 0.25748 3333 ft 171 kts 275°
2026-05-06 02:31 51.43243 0.23835 3290 ft 173 kts 276°
2026-05-06 02:31 51.43306 0.21913 3246 ft 172 kts 276°
2026-05-06 02:31 51.43376 0.20009 3209 ft 171 kts 276°
2026-05-06 02:32 51.43434 0.18056 3093 ft 177 kts 277°
2026-05-06 02:32 51.43516 0.16063 2908 ft 182 kts 277°
2026-05-06 02:32 51.43573 0.14020 2801 ft 183 kts 277°
2026-05-06 02:32 51.43640 0.11985 2670 ft 184 kts 277°
2026-05-06 02:33 51.43722 0.09915 2529 ft 186 kts 277°
2026-05-06 02:33 51.43777 0.08536 2384 ft 189 kts 276°
2026-05-06 02:34 51.43979 0.01405 1971 ft 199 kts 277°
2026-05-06 02:34 51.44065 -0.00819 1954 ft 202 kts 276°
2026-05-06 02:34 51.44135 -0.03054 1942 ft 200 kts 276°
2026-05-06 02:34 51.44197 -0.05303 1953 ft 203 kts 276°
2026-05-06 02:35 51.44268 -0.07550 1982 ft 200 kts 278°
2026-05-06 02:35 51.44720 -0.09636 1980 ft 200 kts 307°
2026-05-06 02:35 51.45746 -0.11056 2047 ft 193 kts 337°
2026-05-06 02:35 51.47027 -0.11689 2054 ft 193 kts 348°
2026-05-06 02:36 51.48313 -0.11999 2016 ft 180 kts
2026-05-06 02:36 51.49447 -0.11415 2036 ft 169 kts 34°
2026-05-06 02:36 51.50203 -0.10139 2157 ft 148 kts 47°
2026-05-06 02:36 51.50814 -0.08865 2168 ft 141 kts 62°
2026-05-06 02:37 51.50971 -0.07334 2205 ft 140 kts 85°
2026-05-06 02:37 51.50909 -0.05793 2239 ft 137 kts 91°
2026-05-06 02:37 51.50817 -0.04339 2229 ft 129 kts 89°
2026-05-06 02:37 51.50767 -0.02962 2200 ft 117 kts 86°
2026-05-06 02:38 51.50561 -0.01750 2116 ft 110 kts 94°
2026-05-06 02:38 51.50449 -0.00594 2022 ft 104 kts 91°
2026-05-06 02:38 51.50605 0.00471 1915 ft 99 kts 39°
2026-05-06 02:38 51.51218 0.00745 1769 ft 97 kts 345°
2026-05-06 02:39 51.51769 0.00018 1500 ft 109 kts 307°
2026-05-06 02:39 51.51866 -0.01208 1302 ft 120 kts 254°
2026-05-06 02:39 51.51297 -0.02146 1071 ft 123 kts 201°
2026-05-06 02:39 51.50468 -0.02072 876 ft 121 kts 148°
2026-05-06 02:40 51.50042 -0.01063 844 ft 107 kts 84°
2026-05-06 02:40 51.50308 0.00004 567 ft 102 kts 56°
2026-05-06 02:40 51.50529 0.00995 420 ft 94 kts 76°
2026-05-06 02:40 51.50576 0.02034 306 ft 94 kts 82°
2026-05-06 02:41 51.50594 0.03071 218 ft 92 kts 86°
2026-05-06 02:41 51.50567 0.04099 99 ft 91 kts 88°
2026-05-06 02:41 51.50540 0.05004 26 ft 61 kts 91°
2026-05-06 02:41 51.50522 0.05568 17 ft 43 kts 91°
2026-05-06 02:42 51.50510 0.05939 16 ft 24 kts 92°
2026-05-06 02:42 51.50506 0.06174 19 ft 20 kts 91°
2026-05-06 02:42 51.50472 0.06324 23 ft 12 kts 153°
2026-05-06 02:42 51.50416 0.06278 22 ft 17 kts 270°
2026-05-06 02:43 51.50419 0.06040 17 ft 26 kts 272°
2026-05-06 02:43 51.50424 0.05729 19 ft 30 kts 274°
2026-05-06 02:43 51.50431 0.05425 19 ft 9 kts 264°
2026-05-06 02:43 51.50412 0.05402 20 ft 0 kts 180°